{"data":{"norad_id":52352,"epoch":"2026-09-19T17:48:39.974976Z","epoch_age_seconds":125141,"freshness":"FRESH","line1":"1 52352U 22045X   26262.74212934  .00000477  00000+0  25243-4 0  9997","line2":"2 52352  53.1612  39.3372 0001067  84.3637 275.7487 15.34392927245195","mean_motion":15.34392927,"eccentricity":0.0001067,"inclination_deg":53.1612,"raan_deg":39.3372,"arg_perigee_deg":84.3637,"mean_anomaly_deg":275.7487,"bstar":2.5243e-5,"rev_number":24519,"period_min":93.848190685775,"perigee_km":461.99434283769,"apogee_km":463.45418263116,"semimajor_km":6840.8612627344,"source":"CELESTRAK","updated_at":"2026-09-20T09:00:40.025008Z"}}